FW4704 Weather Reports


time (UTC)temp
C
wind
direction
speed
KPH
gust
KPH
rain 1hr
cm
rain 24hr
cm
rain mn
cm
humidity
%
barometer
mb
20260507181515 12 321 3.2 8.0 0.00 0.00 0.00 86 1015.4
20260507180027 12 317 6.4 9.7 0.00 0.00 0.00 86 1015.5
20260507174516 12 309 6.4 9.7 0.00 0.00 0.00 85 1015.5
20260507173023 12 318 6.4 12.9 0.00 0.00 0.00 85 1015.5
20260507171525 12 306 6.4 14.5 0.00 0.00 0.00 85 1015.5
20260507170012 12 297 8.0 14.5 0.00 0.00 0.00 85 1015.5
20260507164511 12 306 8.0 14.5 0.00 0.00 0.00 85 1015.5
20260507163012 12 300 6.4 14.5 0.00 0.00 0.00 85 1015.6
20260507161510 12 309 8.0 12.9 0.00 0.00 0.00 86 1015.6
20260507160009 13 292 9.7 16.1 0.00 0.00 0.00 85 1015.5
20260507154510 13 317 11.3 17.7 0.00 0.00 0.00 84 1015.6
20260507153009 13 295 11.3 16.1 0.00 0.00 0.00 84 1015.5
20260507151508 13 305 8.0 14.5 0.00 0.00 0.00 85 1015.5
20260507150008 13 298 12.9 17.7 0.00 0.00 0.00 84 1015.5
20260507144508 13 290 8.0 14.5 0.00 0.00 0.00 84 1015.5
20260507143013 13 289 8.0 16.1 0.00 0.00 0.00 84 1015.5
20260507141505 13 306 9.7 16.1 0.00 0.00 0.00 85 1015.4
20260507140006 12 315 6.4 14.5 0.00 0.00 0.00 85 1015.6
20260507134512 12 292 8.0 14.5 0.00 0.00 0.00 84 1015.5
20260507133004 13 277 6.4 14.5 0.00 0.00 0.00 83 1015.6
20260507131504 13 281 1.6 12.9 0.00 0.00 0.00 82 1015.6
20260507130002 13 301 6.4 16.1 0.00 0.00 0.00 81 1015.6
20260507124508 14 277 6.4 17.7 0.00 0.00 0.00 80 1015.6
20260507123004 15 288 6.4 17.7 0.00 0.00 0.00 79 1015.5
20260507121501 15 297 3.2 11.3 0.00 0.00 0.00 75 1015.3
20260507120103 15 268 8.0 12.9 0.00 0.00 0.00 77 1015.5
20260507114604 14 244 4.8 11.3 0.00 0.00 0.00 77 1015.6
20260507113052 14 288 3.2 6.4 0.00 0.00 0.00 78 1015.5
20260507111549 13 238 3.2 8.0 0.00 0.00 0.00 78 1015.3
20260507110047 13 253 3.2 8.0 0.00 0.00 0.00 78 1015.6
20260507104546 13 145 0.0 3.2 0.00 0.00 0.00 79 1015.6
20260507103045 13 144 3.2 6.4 0.00 0.00 0.00 79 1015.7
20260507101544 13 138 1.6 6.4 0.00 0.00 0.00 81 1015.5
20260507100043 13 134 1.6 8.0 0.00 0.00 0.00 82 1015.5
20260507094549 13 105 1.6 9.7 0.00 0.00 0.00 82 1015.5
20260507093040 13 123 1.6 6.4 0.00 0.00 0.00 83 1015.3
20260507091538 13 80 3.2 11.3 0.00 0.00 0.00 86 1015.3
20260507090034 12 92 3.2 8.0 0.00 0.00 0.00 89 1015.2
20260507084532 12 66 3.2 14.5 0.00 0.00 0.00 90 1015.1
20260507083027 11 73 3.2 8.0 0.00 0.00 0.00 92 1015.0
20260507081531 11 30 3.2 9.7 0.00 0.00 0.00 94 1015.0
20260507080020 10 32 4.8 12.9 0.00 0.00 0.00 95 1014.9
20260507074527 10 24 6.4 12.9 0.00 0.00 0.00 96 1014.8
20260507073015 10 11 9.7 16.1 0.00 0.00 0.00 97 1014.9
20260507071514 10 9 8.0 12.9 0.00 0.00 0.00 98 1014.8
20260507070014 9 9 4.8 9.7 0.00 0.00 0.00 98 1014.7
20260507064512 9 344 6.4 14.5 0.00 0.00 0.00 98 1014.8
20260507063010 9 344 6.4 12.9 0.00 0.00 0.00 99 1014.7
20260507061510 8 355 4.8 12.9 0.00 0.00 0.00 99 1014.5
20260507060008 8 326 6.4 9.7 0.00 0.00 0.00 99 1014.5
20260507054506 8 349 4.8 9.7 0.00 0.00 0.00 100 1014.3
20260507053006 8 350 6.4 8.0 0.00 0.00 0.00 100 1014.3
20260507051504 8 342 4.8 9.7 0.00 0.00 0.00 100 1014.1
20260507050002 7 334 1.6 4.8 0.00 0.00 0.00 99 1013.9
20260507044602 7 336 3.2 6.4 0.00 0.00 0.00 99 1013.7
20260507043101 7 333 0.0 3.2 0.00 0.00 0.00 99 1013.6
20260507041603 7 333 0.0 4.8 0.00 0.00 0.00 99 1013.6
20260507040106 7 331 3.2 8.0 0.00 0.00 0.00 99 1013.5
20260507034618 7 280 0.0 6.4 0.00 0.00 0.00 99 1013.3
20260507033105 7 246 0.0 0.0 0.00 0.00 0.00 99 1013.2
20260507031552 7 246 0.0 0.0 0.00 0.00 0.00 99 1013.1
20260507030052 7 243 0.0 3.2 0.00 0.00 0.00 99 1013.0
20260507024557 7 243 0.0 1.6 0.00 0.00 0.00 99 1013.0
20260507023050 7 243 1.6 3.2 0.00 0.00 0.00 98 1013.0
20260507021557 7 243 1.6 3.2 0.00 0.00 0.00 98 1013.0
20260507020049 7 243 0.0 3.2 0.00 0.00 0.00 98 1012.9
20260507014549 7 243 1.6 4.8 0.00 0.00 0.00 97 1012.8
20260507013103 6 243 1.6 3.2 0.00 0.00 0.00 97 1012.8
20260507011545 7 242 1.6 3.2 0.00 0.00 0.00 96 1012.6
20260507010043 7 242 3.2 4.8 0.00 0.00 0.00 96 1012.6
20260507004540 7 242 1.6 4.8 0.00 0.00 0.00 96 1012.6
20260507003039 7 243 3.2 6.4 0.00 0.00 0.00 96 1012.6
20260507001558 8 256 1.6 4.8 0.00 0.00 0.00 96 1012.6
20260507000033 8 256 0.0 1.6 0.00 0.00 0.00 96 1012.6
20260506234544 8 256 0.0 3.2 0.00 0.00 0.00 96 1012.5
20260506233025 8 256 1.6 6.4 0.00 0.00 0.00 95 1012.2
20260506231523 9 256 3.2 8.0 0.00 0.00 0.00 95 1012.2
20260506230021 9 246 3.2 8.0 0.00 0.00 0.00 95 1012.2
20260506224526 9 248 4.8 8.0 0.00 0.00 0.00 95 1012.3
20260506223018 10 262 3.2 11.3 0.00 0.00 0.00 95 1012.2
20260506221514 10 259 3.2 9.7 0.00 0.00 0.00 95 1012.2
20260506220029 10 241 4.8 9.7 0.00 0.00 0.00 95 1012.2
20260506214512 10 261 4.8 12.9 0.00 0.00 0.00 95 1012.1
20260506213011 10 249 8.0 14.5 0.00 0.00 0.00 95 1012.1
20260506211517 10 267 8.0 14.5 0.00 0.00 0.00 94 1012.0
20260506210009 10 254 9.7 17.7 0.00 0.00 0.00 94 1011.9
20260506204508 10 259 6.4 14.5 0.00 0.00 0.00 94 1011.9
20260506203006 10 281 8.0 14.5 0.00 0.00 0.00 93 1011.8
20260506201506 10 254 8.0 17.7 0.00 0.00 0.00 93 1011.7
20260506200005 10 257 9.7 16.1 0.00 0.00 0.00 93 1011.6
20260506194504 10 246 9.7 16.1 0.00 0.00 0.00 92 1011.5
20260506193003 10 242 11.3 19.3 0.00 0.00 0.00 92 1011.4
20260506191501 11 270 11.3 19.3 0.00 0.00 0.00 91 1011.3
20260506190000 11 252 8.0 19.3 0.00 0.00 0.00 91 1011.1
20260506184600 11 235 9.7 16.1 0.00 0.00 0.00 90 1011.2
20260506183103 11 255 9.7 19.3 0.00 0.00 0.00 89 1011.2